[[{"header":{"parameterUnit":"m.s-1","parameterCategory":2,"la1":30.2991,"la2":30.254,"lo1":-89.0895,"lo2":-89.0444,"dy":0.0017,"dx":0.0017,"nx":28,"ny":28,"refTime":"2026-02-24T09:00:00:Z","depth":"0","parameterNumber":2,"parameterNumberName":"U-component_of_CURRENTS"},"data":[0,0,0,0,0,0,0,0,0,0,0,0,0,0,0,0,0,0,0,0,0,0,0,0,0,0,0,0,0,0,0,0,0,0,0,0,0,0,0,0,0,0,0,0,0,0,0,0,0,0,0,0,0,0,0,0,0,0,0.1726,0.1726,0,0.1746,0.1746,0.1747,0.1752,0.1752,0.1752,0.1752,0.1741,0.1741,0.174,0,0,0,0,0,0,0,0,0,0,0,0,0,0.1684,0.1685,0.1726,0.1726,0.1727,0.1746,0.1746,0.1747,0.1752,0.1752,0.1752,0.1752,0.1741,0.1741,0.174,0,0,0,0,0,0,0,0,0,0,0,0,0,0.1701,0.1685,0.1726,0.1733,0.1734,0.1746,0.1746,0.1747,0.1752,0.1752,0.1752,0.1753,0.1741,0.1741,0.174,0.1735,0,0,0.1739,0.1738,0,0,0,0,0,0,0,0,0.17,0.1703,0.1732,0.1733,0.1734,0.1748,0.1728,0.1742,0.1752,0.1744,0.1752,0.1753,0.1742,0.1741,0.1743,0.1735,0.1734,0.1739,0.1738,0.1738,0.1738,0,0,0,0,0,0,0,0.1699,0.1702,0.1732,0.1732,0.1734,0.1733,0.1735,0.173,0.174,0.1744,0.1745,0.175,0.1742,0.1743,0.1742,0.1734,0.1739,0.1738,0.1738,0.1738,0.1736,0.1737,0,0,0,0,0,0,0.1701,0.1701,0.1732,0.1733,0.1719,0.1734,0.1737,0.1742,0.1741,0.1741,0.175,0.1751,0.1744,0.1743,0.1742,0.1754,0.1738,0.1738,0.1737,0.1736,0.1736,0.1737,0,0,0,0,0,0,0.17,0.1703,0.1731,0.1719,0.1722,0.1735,0.1741,0.1743,0.1749,0.1746,0.1746,0.1755,0.1744,0.1743,0.1743,0.1753,0.1737,0.1737,0.1736,0.1736,0.1737,0.1767,0,0,0,0,0,0,0.1698,0.1703,0.1707,0.1719,0.1723,0.1742,0.1741,0.1743,0.1752,0.1753,0.175,0.1749,0.1744,0.1744,0.1742,0.1752,0.1736,0.1735,0.1736,0.1736,0.1765,0.1768,0.177,0,0,0,0,0,0.1697,0.1702,0.1707,0.1711,0.1729,0.1743,0.1745,0.1752,0.1752,0.1757,0.1755,0.1749,0.1746,0.1744,0.1742,0.1752,0.1735,0.1736,0.1736,0.1764,0.1768,0.177,0,0,0,0,0,0,0.1686,0.1704,0.1709,0.172,0.1733,0.1745,0.1749,0.1755,0.1757,0.1757,0.1752,0.1751,0.1755,0.1747,0.1745,0.1752,0.174,0.174,0.1762,0.1765,0.1767,0.1784,0.1736,0,0,0,0,0,0.1686,0.1694,0.1712,0.172,0.1727,0.1738,0.1745,0.1752,0.1757,0.1759,0.1757,0.1754,0.1756,0.1755,0.1752,0.1755,0.1787,0.176,0.1763,0.1765,0.1778,0.1829,0.1838,0.1739,0.1739,0.1739,0,0,0.1684,0.1695,0.1699,0.1718,0.1727,0.1739,0.1742,0.1754,0.1764,0.1756,0.1762,0.1762,0.1758,0.1764,0.1765,0.1759,0.1814,0.1766,0.1768,0.178,0.1831,0.1841,0.185,0.1739,0.1739,0.1739,0,0,0.1682,0.1694,0.17,0.1712,0.173,0.1739,0.1745,0.1759,0.1765,0.1773,0.1772,0.1783,0.1774,0.1785,0.1786,0.1801,0.1825,0.1793,0.1821,0.1871,0.188,0.1889,0.1964,0.1979,0.1795,0.1795,0.1795,0,0.168,0.1691,0.1704,0.1714,0.1724,0.174,0.1751,0.1761,0.1774,0.1788,0.1776,0.1796,0.1789,0.1816,0.182,0.1809,0.1849,0.181,0.1877,0.1886,0.1894,0.1969,0.1985,0.1797,0.1796,0.1796,0.1796,0,0.1683,0.1694,0.1698,0.1717,0.173,0.1742,0.1761,0.1777,0.1786,0.1801,0.1827,0.1826,0.1845,0.184,0.1833,0.1884,0.19,0.1876,0.1874,0.1906,0.1982,0.1999,0.1799,0.1798,0.1798,0.1797,0,0,0.1677,0.1696,0.1698,0.1707,0.1733,0.1745,0.1769,0.1802,0.1831,0.184,0.1881,0.1882,0.1896,0.1899,0.1898,0.1935,0.2028,0.1931,0.1933,0.2015,0.2168,0.2184,0.2203,0.2017,0.2019,0.2021,0.2207,0,0.1677,0.1685,0.1702,0.172,0.1727,0.1758,0.1783,0.1817,0.1845,0.1888,0.1909,0.194,0.1914,0.1933,0.1966,0.2013,0.2068,0.1982,0.2116,0.2121,0.2138,0.2221,0.2211,0.2375,0.2223,0.2225,0.2227,0,0.1675,0.1681,0.1688,0.1724,0.1734,0.1749,0.1804,0.1833,0.1902,0.1927,0.1971,0.1996,0.2061,0.2025,0.2142,0.2091,0.2137,0.2169,0.2177,0.2193,0.2167,0.2313,0.2411,0.2454,0.2252,0.225,0.2249,0,0.1652,0.1677,0.168,0.1688,0.1728,0.1747,0.1779,0.1842,0.1881,0.1962,0.2012,0.2077,0.2137,0.2189,0.2263,0.2213,0.2404,0.234,0.2406,0.2409,0.2428,0.2428,0.259,0.2434,0.2434,0.2433,0.2433,0,0.164,0.1647,0.1667,0.1666,0.1689,0.173,0.1776,0.1821,0.1901,0.1963,0.2032,0.2105,0.2182,0.2293,0.2322,0.2443,0.2461,0.2448,0.2465,0.2439,0.2437,0.2494,0.248,0.244,0.2439,0.2437,0.2436,0,0.1609,0.1621,0.1629,0.166,0.1671,0.1689,0.176,0.1801,0.1891,0.198,0.2015,0.2166,0.2323,0.2415,0.2544,0.2545,0.2592,0.2665,0.2646,0.2656,0.2708,0.2694,0.2601,0.2524,0.2764,0.2766,0.2767,0,0.1596,0.1589,0.1606,0.1613,0.1623,0.1658,0.1687,0.1771,0.1825,0.2011,0.2059,0.226,0.2383,0.2613,0.2688,0.2802,0.2694,0.2832,0.2713,0.2752,0.275,0.2493,0.2415,0.2768,0.277,0.2771,0.2771,0,0.1564,0.1563,0.1562,0.1571,0.1587,0.1618,0.1672,0.1708,0.1832,0.1935,0.2097,0.2221,0.2488,0.2642,0.282,0.2853,0.2727,0.2854,0.2903,0.2788,0.2511,0.2433,0.2621,0.2781,0.278,0.2779,0.2779,0.2778,0.1538,0.1527,0.1522,0.1531,0.1556,0.158,0.1598,0.1677,0.1766,0.1924,0.2063,0.2257,0.258,0.2838,0.2859,0.2987,0.2795,0.2958,0.2952,0.2696,0.2567,0.2787,0.2942,0.2942,0.2942,0.2942,0.2942,0,0.1508,0.1495,0.149,0.1501,0.1521,0.1543,0.1593,0.1616,0.1706,0.189,0.2035,0.2395,0.2649,0.2879,0.3143,0.3124,0.2864,0.309,0.2777,0.2704,0.2973,0.2926,0.3073,0.3073,0.3073,0.3073,0.3073,0.3073,0.1487,0.1462,0.1451,0.1459,0.148,0.1489,0.1505,0.1546,0.1662,0.1869,0.2079,0.2269,0.2742,0.3159,0.332,0.3264,0.3034,0.2892,0.2823,0.3136,0.3122,0.3109,0.3065,0.3239,0.3239,0.2415,0.241,0.2407]},{"header":{"parameterUnit":"m.s-1","parameterCategory":2,"la1":30.2991,"la2":30.254,"lo1":-89.0895,"lo2":-89.0444,"dy":0.0017,"dx":0.0017,"nx":28,"ny":28,"refTime":"2026-02-24T09:00:00:Z","depth":"0","parameterNumber":3,"parameterNumberName":"V-component_of_CURRENTS"},"data":[0,0,0,0,0,0,0,0,0,0,0,0,0,0,0,0,0,0,0,0,0,0,0,0,0,0,0,0,0,0,0,0,0,0,0,0,0,0,0,0,0,0,0,0,0,0,0,0,0,0,0,0,0,0,0,0,0,0,0.0258,0.0257,0,0.0188,0.0188,0.0187,0.0141,0.0141,0.014,0.014,0.0045,0.0043,0.0041,0,0,0,0,0,0,0,0,0,0,0,0,0,0.0326,0.0325,0.0258,0.0257,0.0256,0.0189,0.0188,0.0187,0.0141,0.0141,0.014,0.014,0.0046,0.0043,0.0041,0,0,0,0,0,0,0,0,0,0,0,0,0,0.028,0.0325,0.0258,0.0226,0.0222,0.0189,0.0188,0.0186,0.0141,0.014,0.014,0.014,0.0047,0.0044,0.004,0.0026,0,0,0.003,0.0028,0,0,0,0,0,0,0,0,0.0283,0.0277,0.0231,0.0228,0.0224,0.0174,0.0177,0.0132,0.0141,0.0171,0.014,0.014,0.0087,0.008,0.0067,0.0022,0.0018,0.0029,0.0027,0.0026,0.0025,0,0,0,0,0,0,0,0.0286,0.028,0.023,0.023,0.0226,0.0206,0.02,0.0168,0.0131,0.0168,0.0165,0.0159,0.0084,0.007,0.0064,0.0016,0.0029,0.0026,0.0024,0.0023,-0.0051,-0.0051,0,0,0,0,0,0,0.0297,0.0283,0.0232,0.0228,0.0254,0.0206,0.0198,0.0189,0.0131,0.0123,0.0159,0.0157,0.0076,0.0068,0.0061,0.0042,0.0026,0.0023,0.0021,-0.0052,-0.0051,-0.0051,0,0,0,0,0,0,0.0299,0.0294,0.0235,0.0255,0.0246,0.0205,0.0196,0.0188,0.0174,0.0125,0.0115,0.0153,0.0076,0.0066,0.0032,0.0038,0.0021,0.0018,-0.0052,-0.0051,-0.0051,0.0004,0,0,0,0,0,0,0.0301,0.0295,0.0294,0.0255,0.0245,0.0221,0.0196,0.0187,0.0171,0.0168,0.0116,0.0107,0.0075,0.0037,0.0029,0.0033,0.0015,-0.0052,-0.0052,-0.0051,0.0003,0.0007,0.001,0,0,0,0,0,0.0304,0.0307,0.0294,0.0288,0.0245,0.0222,0.0215,0.0184,0.0172,0.0169,0.0131,0.0109,0.0032,0.0035,0.0024,0.0028,-0.0052,-0.0052,-0.0051,0.0001,0.0006,0.001,0,0,0,0,0,0,0.0339,0.0302,0.0287,0.0279,0.0255,0.0214,0.021,0.0189,0.0157,0.0153,0.0106,0.0094,0.0067,0.004,0.0043,0.0007,-0.0012,-0.0014,0.0031,0.0035,0.0039,0.0068,0.0012,0,0,0,0,0,0.0347,0.0337,0.0301,0.0296,0.0286,0.0249,0.0236,0.0216,0.0183,0.0168,0.0132,0.0094,0.006,0.0042,0.0008,-0.0012,-0.0026,-0.0016,-0.0012,-0.0008,0.0008,-0.0016,-0.0013,-0.0051,-0.0051,-0.0051,0,0,0.036,0.0338,0.0333,0.0303,0.0281,0.0273,0.024,0.0225,0.0219,0.0163,0.0143,0.0104,0.0057,0.0032,0.0019,0.0011,-0.0005,-0.0008,-0.0005,0.001,-0.0016,-0.0012,-0.0008,-0.0051,-0.0051,-0.0051,0,0,0.0384,0.0363,0.0363,0.0346,0.0317,0.0295,0.0294,0.0255,0.0239,0.0213,0.0172,0.0142,0.0088,0.006,0.0038,0.0043,0.0014,0.0027,0.0071,0.0047,0.005,0.0053,0.0047,0.0048,0.0031,0.0031,0.0032,0,0.0404,0.0396,0.0361,0.0358,0.0353,0.0309,0.0315,0.029,0.0246,0.0241,0.0216,0.0148,0.0105,0.0082,0.0081,0.0053,0.0039,0.0059,0.0054,0.0056,0.0058,0.005,0.0051,0.0034,0.0034,0.0034,0.0033,0,0.0424,0.0421,0.0422,0.0403,0.0393,0.0391,0.0357,0.0347,0.0321,0.0295,0.0267,0.0206,0.0171,0.0148,0.0113,0.0105,0.0091,0.006,0.0047,0.0065,0.0056,0.0056,0.0038,0.0037,0.0036,0.0036,0,0,0.0463,0.0442,0.0443,0.045,0.0419,0.0417,0.0412,0.0399,0.0407,0.0354,0.0358,0.0291,0.026,0.0234,0.0184,0.0161,0.0156,0.0122,0.0119,0.0125,0.0116,0.0108,0.0107,0.012,0.012,0.012,0.0107,0,0.0493,0.0507,0.0484,0.0505,0.0513,0.0483,0.049,0.0473,0.0445,0.0435,0.0375,0.0351,0.0291,0.0276,0.0242,0.0176,0.0158,0.0163,0.009,0.0089,0.0086,0.0108,0.0115,0.0104,0.0107,0.0107,0.0108,0,0.052,0.0529,0.0554,0.057,0.0572,0.0579,0.0593,0.0592,0.0564,0.0539,0.0501,0.045,0.0407,0.035,0.0265,0.027,0.0206,0.0153,0.0151,0.0127,0.0081,0.0083,0.0104,-0.0003,0.0108,0.0108,0.0108,0,0.0567,0.058,0.0607,0.0608,0.0614,0.0632,0.0642,0.063,0.0647,0.0607,0.0614,0.0537,0.0518,0.042,0.0311,0.0287,0.0222,0.0172,0.0109,0.0108,0.0094,0.0091,0.0013,0.0122,0.0122,0.0122,0.0122,0,0.0605,0.0627,0.0635,0.0649,0.0702,0.069,0.0744,0.073,0.0735,0.0768,0.0678,0.0694,0.0535,0.0475,0.0352,0.0245,0.0254,0.0133,0.0106,0.0113,0.0113,0.0002,-0.0072,0.0121,0.0121,0.0121,0.0121,0,0.0643,0.0641,0.0682,0.0708,0.0721,0.0764,0.0816,0.0858,0.0847,0.0888,0.0883,0.0822,0.0748,0.0595,0.0448,0.0321,0.0138,0.0158,0.0186,0.0163,-0.0007,-0.0078,-0.0155,-0.0216,0.0086,0.0086,0.0085,0,0.0662,0.0685,0.0731,0.0767,0.0779,0.0841,0.0892,0.0905,0.0948,0.0979,0.1008,0.0959,0.0938,0.0725,0.0491,0.0285,0.0162,0.0147,0.0095,0.0001,-0.0099,-0.0126,-0.0174,0.01,0.01,0.01,0.01,0,0.0707,0.0721,0.0752,0.0824,0.088,0.0959,0.1026,0.1078,0.1109,0.1151,0.1203,0.1197,0.101,0.0816,0.0529,0.0366,0.0071,0.0139,0.0027,-0.0097,-0.0118,-0.0194,0.01,0.0099,0.0099,0.0099,0.0099,0.0099,0.0743,0.0778,0.0817,0.0884,0.096,0.1059,0.1142,0.1218,0.1306,0.1393,0.1372,0.1433,0.1152,0.0771,0.0487,0.0075,0.0077,-0.0046,-0.0122,-0.0138,-0.0203,0.0103,0.0075,0.0075,0.0075,0.0075,0.0075,0,0.079,0.0819,0.0878,0.0969,0.1072,0.1095,0.1222,0.1319,0.1445,0.1562,0.1622,0.1625,0.1205,0.0809,0.024,-0.0107,-0.0241,-0.028,-0.0329,-0.0369,-0.0106,-0.0113,-0.0165,-0.0165,-0.0165,-0.0165,-0.0165,-0.0165,0.0814,0.0861,0.088,0.1036,0.1121,0.1268,0.1353,0.1484,0.1615,0.1831,0.1982,0.2096,0.1954,0.0739,-0.004,-0.0287,-0.0525,-0.0583,-0.0684,-0.0523,-0.0507,-0.0491,-0.0515,-0.0651,-0.0651,-0.0898,-0.0901,-0.0903]}],[{"header":{"parameterUnit":"m.s-1","parameterCategory":2,"la1":30.2991,"la2":30.254,"lo1":-89.0895,"lo2":-89.0444,"dy":0.0017,"dx":0.0017,"nx":28,"ny":28,"refTime":"2026-02-24T09:00:00:Z","depth":"2","parameterNumber":2,"parameterNumberName":"U-component_of_CURRENTS"},"data":[0,0,0,0,0,0,0,0,0,0,0,0,0,0,0,0,0,0,0,0,0,0,0,0,0,0,0,0,0,0,0,0,0,0,0,0,0,0,0,0,0,0,0,0,0,0,0,0,0,0,0,0,0,0,0,0,0,0,0.1679,0.1679,0,0.1699,0.1699,0.1699,0.1706,0.1706,0.1706,0.1706,0.1696,0.1696,0.1695,0,0,0,0,0,0,0,0,0,0,0,0,0,0.1637,0.1637,0.1679,0.1679,0.1679,0.1699,0.1699,0.1699,0.1706,0.1706,0.1706,0.1706,0.1696,0.1696,0.1695,0,0,0,0,0,0,0,0,0,0,0,0,0,0.1654,0.1638,0.1678,0.1687,0.1688,0.1699,0.1699,0.1699,0.1706,0.1706,0.1706,0.1706,0.1696,0.1696,0.1695,0.169,0,0,0.1694,0.1694,0,0,0,0,0,0,0,0,0.1653,0.1655,0.1685,0.1686,0.1687,0.1702,0.1681,0.1695,0.1706,0.1697,0.1706,0.1707,0.1696,0.1696,0.1697,0.1689,0.1689,0.1694,0.1693,0.1693,0.1693,0,0,0,0,0,0,0,0.1652,0.1655,0.1685,0.1685,0.1687,0.1686,0.1689,0.1683,0.1694,0.1698,0.1699,0.1704,0.1696,0.1698,0.1697,0.1688,0.1694,0.1693,0.1693,0.1693,0.1692,0.1692,0,0,0,0,0,0,0.1653,0.1654,0.1684,0.1686,0.1672,0.1687,0.169,0.1695,0.1695,0.1695,0.1704,0.1704,0.1699,0.1698,0.1697,0.1709,0.1693,0.1693,0.1692,0.1691,0.1692,0.1692,0,0,0,0,0,0,0.1652,0.1656,0.1683,0.1671,0.1675,0.1688,0.1694,0.1696,0.1703,0.17,0.17,0.171,0.1699,0.1697,0.1698,0.1708,0.1692,0.1692,0.1691,0.1691,0.1692,0.1722,0,0,0,0,0,0,0.1651,0.1656,0.166,0.1671,0.1676,0.1695,0.1694,0.1696,0.1706,0.1707,0.1704,0.1703,0.1699,0.1699,0.1698,0.1707,0.1692,0.1691,0.1691,0.1692,0.1721,0.1724,0.1726,0,0,0,0,0,0.165,0.1655,0.166,0.1664,0.1682,0.1695,0.1697,0.1705,0.1706,0.1711,0.171,0.1704,0.1701,0.1699,0.1697,0.1707,0.169,0.1691,0.1692,0.172,0.1723,0.1726,0,0,0,0,0,0,0.1639,0.1657,0.1662,0.1673,0.1686,0.1697,0.1702,0.1708,0.1711,0.1711,0.1706,0.1705,0.171,0.1702,0.17,0.1708,0.1695,0.1696,0.1717,0.172,0.1723,0.1741,0.1691,0,0,0,0,0,0.164,0.1647,0.1665,0.1673,0.168,0.1692,0.1698,0.1706,0.1711,0.1713,0.1711,0.1709,0.1711,0.1711,0.1708,0.1711,0.1742,0.1716,0.1718,0.1721,0.1734,0.1784,0.1793,0.1694,0.1694,0.1694,0,0,0.1638,0.1649,0.1653,0.1672,0.1681,0.1692,0.1696,0.1708,0.1718,0.171,0.1717,0.1717,0.1713,0.1719,0.1721,0.1715,0.1769,0.1722,0.1724,0.1736,0.1786,0.1796,0.1805,0.1695,0.1694,0.1694,0,0,0.1636,0.1648,0.1654,0.1666,0.1684,0.1693,0.1699,0.1713,0.172,0.1728,0.1728,0.1739,0.173,0.1741,0.1742,0.1756,0.178,0.1749,0.1778,0.1827,0.1836,0.1844,0.1917,0.1931,0.1751,0.1751,0.1751,0,0.1635,0.1645,0.1658,0.1668,0.1679,0.1695,0.1706,0.1716,0.1728,0.1743,0.1732,0.1752,0.1745,0.1771,0.1776,0.1765,0.1804,0.1767,0.1832,0.1841,0.1849,0.1921,0.1937,0.1753,0.1752,0.1752,0.1752,0,0.1638,0.1648,0.1653,0.1672,0.1685,0.1697,0.1716,0.1733,0.1741,0.1757,0.1784,0.1782,0.1801,0.1796,0.1789,0.184,0.1856,0.1831,0.1829,0.1862,0.1935,0.1951,0.1755,0.1754,0.1754,0.1753,0,0,0.1632,0.1651,0.1653,0.1663,0.1689,0.17,0.1725,0.1757,0.1787,0.1796,0.1838,0.1839,0.1854,0.1857,0.1855,0.1891,0.1983,0.1888,0.189,0.1969,0.2119,0.2103,0.2119,0.1972,0.1974,0.1976,0.2156,0,0.1633,0.1641,0.1658,0.1676,0.1683,0.1715,0.174,0.1774,0.1802,0.1845,0.1865,0.1897,0.1872,0.1891,0.1924,0.1968,0.2023,0.1938,0.2068,0.2073,0.2061,0.2135,0.196,0.2103,0.2171,0.2174,0.2176,0,0.1632,0.1638,0.1646,0.1682,0.1692,0.1707,0.1763,0.1792,0.186,0.1885,0.1929,0.1954,0.2018,0.1982,0.2097,0.2047,0.2091,0.2122,0.2129,0.2114,0.2085,0.2076,0.2129,0.2203,0.2201,0.2199,0.2197,0,0.161,0.1635,0.1639,0.1647,0.1687,0.1707,0.1739,0.1802,0.184,0.1922,0.1972,0.2035,0.2095,0.2145,0.2215,0.2167,0.2351,0.2289,0.2325,0.2325,0.2202,0.2187,0.2381,0.2381,0.238,0.238,0.2379,0,0.1599,0.1607,0.1627,0.1627,0.1651,0.1692,0.1738,0.1783,0.1863,0.1924,0.1993,0.2065,0.214,0.2246,0.2273,0.2372,0.2407,0.2363,0.2375,0.2209,0.2193,0.2284,0.2271,0.2387,0.2385,0.2384,0.2383,0,0.1569,0.1582,0.1591,0.1623,0.1634,0.1653,0.1724,0.1765,0.1854,0.1941,0.1977,0.2126,0.2272,0.2358,0.2481,0.2468,0.2543,0.2566,0.2384,0.2371,0.2471,0.2456,0.2622,0.2623,0.2624,0.2625,0.2625,0,0.1557,0.1551,0.157,0.1577,0.1588,0.1624,0.1653,0.1737,0.1789,0.1973,0.2018,0.2209,0.2313,0.2517,0.2547,0.2632,0.2638,0.2511,0.2367,0.2503,0.2499,0.2483,0.2468,0.2232,0.2229,0.2227,0.2225,0,0.1526,0.1527,0.1526,0.1536,0.1554,0.1585,0.1637,0.1673,0.1795,0.1892,0.2048,0.2155,0.2362,0.2391,0.2518,0.2522,0.2473,0.247,0.2684,0.2186,0.2146,0.2137,0.2133,0.2206,0.2208,0.2209,0.221,0.2211,0.1501,0.1491,0.1486,0.1496,0.1523,0.1547,0.1562,0.1635,0.1718,0.1847,0.1982,0.2095,0.2189,0.2293,0.2277,0.2285,0.2431,0.2325,0.2327,0.2332,0.2243,0.2205,0.2262,0.2264,0.2266,0.2268,0.2269,0,0.1468,0.1459,0.1454,0.1465,0.1482,0.1507,0.1557,0.1563,0.164,0.1764,0.1874,0.181,0.1884,0.1983,0.1969,0.1999,0.1918,0.1926,0.18,0.1825,0.1846,0.1724,0.161,0.1607,0.1604,0.1602,0,0,0.1446,0.1419,0.1407,0.1413,0.1435,0.1439,0.1456,0.1466,0.1532,0.1567,0.1623,0.1787,0.1923,0.1712,0.1727,0.1667,0.1709,0.1606,0.215,0.2027,0.2042,0.2114,0.1963,0,0,0,0,0]},{"header":{"parameterUnit":"m.s-1","parameterCategory":2,"la1":30.2991,"la2":30.254,"lo1":-89.0895,"lo2":-89.0444,"dy":0.0017,"dx":0.0017,"nx":28,"ny":28,"refTime":"2026-02-24T09:00:00:Z","depth":"2","parameterNumber":3,"parameterNumberName":"V-component_of_CURRENTS"},"data":[0,0,0,0,0,0,0,0,0,0,0,0,0,0,0,0,0,0,0,0,0,0,0,0,0,0,0,0,0,0,0,0,0,0,0,0,0,0,0,0,0,0,0,0,0,0,0,0,0,0,0,0,0,0,0,0,0,0,0.02,0.0199,0,0.0131,0.013,0.0129,0.0084,0.0084,0.0084,0.0084,-0.001,-0.0012,-0.0015,0,0,0,0,0,0,0,0,0,0,0,0,0,0.0267,0.0266,0.02,0.0199,0.0198,0.0131,0.013,0.0129,0.0084,0.0084,0.0084,0.0083,-0.0009,-0.0012,-0.0015,0,0,0,0,0,0,0,0,0,0,0,0,0,0.0221,0.0266,0.02,0.0168,0.0165,0.0131,0.013,0.0128,0.0084,0.0084,0.0084,0.0083,-0.0009,-0.0012,-0.0015,-0.003,0,0,-0.0026,-0.0027,0,0,0,0,0,0,0,0,0.0224,0.0219,0.0174,0.017,0.0167,0.0116,0.0119,0.0074,0.0084,0.0114,0.0084,0.0083,0.0031,0.0024,0.0011,-0.0035,-0.0039,-0.0026,-0.0028,-0.003,-0.0031,0,0,0,0,0,0,0,0.0227,0.0222,0.0171,0.0173,0.0169,0.0149,0.0142,0.011,0.0074,0.0111,0.0108,0.0102,0.0028,0.0014,0.0008,-0.004,-0.0026,-0.0029,-0.0031,-0.0033,-0.0109,-0.0108,0,0,0,0,0,0,0.0239,0.0225,0.0174,0.0169,0.0196,0.0148,0.0141,0.0132,0.0075,0.0066,0.0102,0.01,0.002,0.0012,0.0005,-0.0014,-0.003,-0.0033,-0.0035,-0.0109,-0.0108,-0.0108,0,0,0,0,0,0,0.0241,0.0235,0.0176,0.0196,0.0188,0.0148,0.0138,0.0131,0.0118,0.0068,0.0059,0.0097,0.002,0.001,-0.0024,-0.0018,-0.0035,-0.0038,-0.0109,-0.0109,-0.0108,-0.0054,0,0,0,0,0,0,0.0243,0.0236,0.0236,0.0197,0.0187,0.0163,0.0138,0.013,0.0114,0.0111,0.006,0.0051,0.0019,-0.0019,-0.0027,-0.0023,-0.004,-0.0109,-0.0109,-0.0108,-0.0056,-0.0052,-0.0049,0,0,0,0,0,0.0246,0.0249,0.0236,0.023,0.0187,0.0163,0.0157,0.0126,0.0115,0.0113,0.0075,0.0053,-0.0024,-0.0021,-0.0032,-0.0029,-0.0109,-0.0109,-0.0108,-0.0057,-0.0053,-0.0049,0,0,0,0,0,0,0.0281,0.0243,0.0229,0.0221,0.0197,0.0156,0.0152,0.0131,0.01,0.0096,0.005,0.0038,0.001,-0.0017,-0.0013,-0.005,-0.0069,-0.0071,-0.0026,-0.0022,-0.0019,0.001,-0.0043,0,0,0,0,0,0.0288,0.0279,0.0243,0.0238,0.0228,0.0191,0.0178,0.0158,0.0125,0.0111,0.0075,0.0037,0.0003,-0.0015,-0.0049,-0.007,-0.0085,-0.0074,-0.007,-0.0067,-0.0051,-0.0077,-0.0074,-0.0108,-0.0108,-0.0108,0,0,0.0302,0.028,0.0275,0.0245,0.0223,0.0214,0.0183,0.0168,0.0161,0.0106,0.0086,0.0047,-0.0001,-0.0026,-0.004,-0.0047,-0.0065,-0.0067,-0.0064,-0.0049,-0.0077,-0.0073,-0.007,-0.0108,-0.0108,-0.0108,0,0,0.0325,0.0304,0.0304,0.0287,0.0259,0.0236,0.0235,0.0197,0.018,0.0155,0.0114,0.0083,0.003,0.0001,-0.0022,-0.0018,-0.0047,-0.0033,0.0009,-0.0016,-0.0013,-0.0011,-0.0018,-0.0017,-0.0029,-0.0029,-0.0029,0,0.0345,0.0337,0.0303,0.0299,0.0293,0.025,0.0255,0.023,0.0186,0.0181,0.0157,0.0088,0.0045,0.002,0.0019,-0.0009,-0.0023,-0.0002,-0.001,-0.0008,-0.0007,-0.0015,-0.0014,-0.0026,-0.0027,-0.0027,-0.0027,0,0.0364,0.0361,0.0362,0.0342,0.0331,0.0329,0.0294,0.0284,0.0259,0.0232,0.0203,0.0143,0.0108,0.0084,0.005,0.004,0.0027,-0.0003,-0.0016,0.0001,-0.001,-0.001,-0.0023,-0.0024,-0.0024,-0.0025,0,0,0.0404,0.0381,0.0382,0.0388,0.0357,0.0354,0.0348,0.0333,0.034,0.0288,0.0289,0.0222,0.0193,0.0166,0.0118,0.0093,0.0086,0.0056,0.0053,0.0058,0.0044,0.0012,0.0008,0.0051,0.0051,0.0051,0.0035,0,0.0432,0.0445,0.0421,0.044,0.0447,0.0417,0.0422,0.0404,0.0376,0.0364,0.0303,0.0279,0.0221,0.0207,0.0173,0.0106,0.0087,0.0095,0.0019,0.0018,-0.0006,0.0007,-0.0013,-0.0031,0.0035,0.0035,0.0035,0,0.0459,0.0466,0.0489,0.0502,0.0505,0.051,0.0521,0.0519,0.0489,0.0464,0.0426,0.0375,0.0331,0.0276,0.019,0.0197,0.0133,0.008,0.0078,0.0032,-0.0015,-0.004,-0.0034,0.0034,0.0034,0.0034,0.0034,0,0.0506,0.0516,0.0541,0.0542,0.0545,0.0562,0.057,0.0556,0.0571,0.053,0.0537,0.0458,0.0439,0.0341,0.0233,0.0211,0.0141,0.0093,0.0009,0.0007,-0.0031,-0.0038,0.0041,0.0041,0.0041,0.0041,0.0041,0,0.0543,0.0563,0.0569,0.0583,0.0634,0.062,0.0671,0.0656,0.0658,0.0688,0.0599,0.0613,0.0456,0.0393,0.0271,0.015,0.0171,0.0029,0.0,-0.0013,-0.0018,0.0018,0.0015,0.0041,0.0041,0.0041,0.0041,0,0.0581,0.0579,0.0617,0.0641,0.0653,0.0694,0.0744,0.0783,0.077,0.0807,0.0803,0.074,0.0658,0.0502,0.0353,0.022,0.009,0.0043,0.0047,0.0018,-0.0035,-0.0035,-0.0056,-0.0057,-0.0058,-0.0059,-0.006,0,0.06,0.0622,0.0667,0.0702,0.0714,0.0774,0.0823,0.0832,0.087,0.0898,0.0922,0.0866,0.0817,0.0587,0.0343,0.0121,0.0113,-0.0033,-0.009,-0.0019,-0.0045,-0.0043,-0.0041,-0.0114,-0.0115,-0.0116,-0.0116,0,0.0643,0.0658,0.0687,0.0757,0.0813,0.0889,0.0951,0.1001,0.1026,0.1061,0.1104,0.1072,0.0849,0.0606,0.0292,0.0135,-0.0011,-0.006,0.0016,-0.009,-0.0076,-0.0101,-0.0097,-0.0125,-0.0124,-0.0123,-0.0123,-0.0123,0.0678,0.0712,0.0749,0.0814,0.0893,0.0988,0.1065,0.1125,0.1202,0.1244,0.1222,0.1178,0.0882,0.0471,0.0197,-0.007,-0.0053,-0.0166,-0.0162,-0.0157,-0.0165,-0.0155,-0.0218,-0.0218,-0.0217,-0.0217,-0.0217,0,0.0717,0.0752,0.0807,0.0894,0.099,0.1018,0.1142,0.1205,0.1309,0.1335,0.1345,0.1055,0.0765,0.0483,0.0062,-0.0214,-0.024,-0.0281,-0.0258,-0.0249,-0.0241,-0.0252,-0.0329,-0.033,-0.033,-0.0331,0,0,0.0739,0.0778,0.0795,0.0942,0.1028,0.1159,0.1241,0.1323,0.1375,0.1377,0.1351,0.1235,0.087,0.0539,0.0161,-0.006,-0.0085,-0.0113,-0.0002,0.0076,0.0088,-0.0164,-0.017,0,0,0,0,0]}],[{"header":{"parameterUnit":"m.s-1","parameterCategory":2,"la1":30.2991,"la2":30.254,"lo1":-89.0895,"lo2":-89.0444,"dy":0.0017,"dx":0.0017,"nx":28,"ny":28,"refTime":"2026-02-24T09:00:00:Z","depth":"4","parameterNumber":2,"parameterNumberName":"U-component_of_CURRENTS"},"data":[0,0,0,0,0,0,0,0,0,0,0,0,0,0,0,0,0,0,0,0,0,0,0,0,0,0,0,0,0,0,0,0,0,0,0,0,0,0,0,0,0,0,0,0,0,0,0,0,0,0,0,0,0,0,0,0,0,0,0.0889,0.089,0,0.0949,0.095,0.0951,0.1,0.1001,0.1001,0.1002,0.1052,0.1052,0.1053,0,0,0,0,0,0,0,0,0,0,0,0,0,0.0799,0.08,0.0889,0.089,0.0891,0.0949,0.095,0.0951,0.1,0.1001,0.1001,0.1002,0.1051,0.1052,0.1053,0,0,0,0,0,0,0,0,0,0,0,0,0,0.0845,0.0801,0.0889,0.0923,0.0927,0.0949,0.095,0.0951,0.1,0.1001,0.1002,0.1003,0.1051,0.1052,0.1053,0.104,0,0,0.1056,0.1057,0,0,0,0,0,0,0,0,0.0843,0.0848,0.0917,0.0921,0.0925,0.097,0.0937,0.0981,0.1,0.0971,0.1002,0.1003,0.1023,0.1027,0.1034,0.1043,0.1045,0.1056,0.1057,0.1058,0.1058,0,0,0,0,0,0,0,0.0839,0.0846,0.0911,0.0918,0.0923,0.093,0.0938,0.0945,0.0989,0.0973,0.0977,0.0986,0.1025,0.1033,0.1035,0.1045,0.1056,0.1057,0.1058,0.1058,0.1113,0.1114,0,0,0,0,0,0,0.0835,0.0843,0.0909,0.0913,0.0887,0.0931,0.094,0.0953,0.099,0.0997,0.0985,0.0988,0.1031,0.1034,0.1037,0.1087,0.1058,0.1059,0.1059,0.1112,0.1113,0.1114,0,0,0,0,0,0,0.0833,0.084,0.0907,0.088,0.089,0.0932,0.0946,0.0954,0.0986,0.0999,0.1006,0.1013,0.1031,0.1036,0.1067,0.1087,0.1059,0.106,0.1111,0.1113,0.1114,0.1147,0,0,0,0,0,0,0.083,0.0839,0.0855,0.088,0.0891,0.0935,0.0946,0.0954,0.0989,0.0994,0.1025,0.1029,0.1033,0.1066,0.1068,0.1088,0.1061,0.111,0.1112,0.1113,0.1145,0.1149,0.1153,0,0,0,0,0,0.0827,0.0841,0.0855,0.0864,0.0909,0.0936,0.0942,0.0974,0.099,0.1006,0.103,0.1029,0.1077,0.1067,0.107,0.1091,0.111,0.1111,0.1113,0.1143,0.1148,0.1152,0,0,0,0,0,0,0.0809,0.0849,0.0865,0.0891,0.0919,0.0945,0.0966,0.0985,0.1016,0.1028,0.1039,0.1045,0.108,0.1079,0.1068,0.1111,0.1093,0.1096,0.1115,0.112,0.1124,0.113,0.1062,0,0,0,0,0,0.0812,0.0838,0.087,0.0893,0.0909,0.0941,0.096,0.0982,0.1008,0.1025,0.1047,0.1067,0.1084,0.1099,0.1112,0.1134,0.1146,0.1149,0.1153,0.1156,0.1164,0.1195,0.1203,0.112,0.112,0.112,0,0,0.081,0.0837,0.0851,0.0892,0.0918,0.0942,0.0956,0.0991,0.1015,0.1023,0.1068,0.1084,0.1094,0.1122,0.1137,0.1128,0.1189,0.1159,0.1162,0.1167,0.1198,0.1206,0.1213,0.1121,0.1121,0.1121,0,0,0.0815,0.0846,0.0868,0.0895,0.0939,0.0957,0.0972,0.1011,0.1037,0.1076,0.1088,0.1119,0.1147,0.116,0.1167,0.12,0.1209,0.1205,0.1232,0.1262,0.1269,0.1276,0.1314,0.1323,0.1207,0.1207,0.1207,0,0.081,0.0847,0.0877,0.0907,0.093,0.0965,0.099,0.1018,0.1064,0.1087,0.1098,0.1155,0.1165,0.1197,0.1212,0.121,0.1232,0.1212,0.1268,0.1274,0.128,0.1318,0.1328,0.1209,0.1208,0.1208,0.1208,0,0.0829,0.0865,0.0882,0.093,0.0955,0.0985,0.1022,0.1058,0.1093,0.1121,0.1175,0.1195,0.1234,0.1236,0.1237,0.1282,0.1287,0.127,0.1256,0.1291,0.1328,0.1338,0.1211,0.1211,0.121,0.121,0,0,0.0795,0.0878,0.0886,0.0918,0.0973,0.0995,0.1038,0.1085,0.1129,0.1171,0.1228,0.1254,0.1282,0.1292,0.1299,0.1321,0.1385,0.1319,0.1319,0.1357,0.1467,0.1363,0.1363,0.1381,0.1382,0.1383,0.148,0,0.0801,0.0856,0.0897,0.0948,0.0976,0.1025,0.1069,0.1117,0.1162,0.1228,0.1258,0.1316,0.1298,0.1335,0.1353,0.1387,0.1411,0.1361,0.1427,0.1429,0.1332,0.1371,0.1389,0.1487,0.1489,0.1491,0.1492,0,0.0802,0.084,0.0893,0.0973,0.0992,0.1031,0.1108,0.1152,0.1236,0.1283,0.1337,0.1374,0.1434,0.1409,0.1478,0.1452,0.1466,0.1475,0.1478,0.1375,0.1342,0.1442,0.151,0.1509,0.1507,0.1506,0.1505,0,0.0758,0.0836,0.0882,0.0908,0.1,0.1041,0.109,0.1169,0.122,0.1325,0.1378,0.1449,0.1498,0.1533,0.1552,0.1537,0.1615,0.1596,0.151,0.1504,0.1555,0.1547,0.1633,0.1633,0.1633,0.1632,0.1632,0,0.074,0.0779,0.0875,0.0901,0.0965,0.1032,0.111,0.1172,0.1272,0.1332,0.1409,0.1445,0.153,0.1575,0.1591,0.1581,0.165,0.1525,0.152,0.1568,0.156,0.1563,0.1554,0.1636,0.1635,0.1635,0.1634,0,0.069,0.0756,0.0815,0.0916,0.095,0.0996,0.1113,0.1163,0.1268,0.1349,0.1391,0.1474,0.1529,0.1589,0.165,0.1612,0.1628,0.1596,0.1662,0.1657,0.1496,0.1487,0.1541,0.1538,0.1536,0.1534,0.1532,0,0.0668,0.0699,0.0811,0.0829,0.088,0.096,0.1014,0.1148,0.1188,0.1332,0.1348,0.1445,0.1489,0.1505,0.1559,0.161,0.1572,0.159,0.1524,0.1496,0.1487,0.1482,0.1477,0.1528,0.1527,0.1527,0.1526,0,0.0623,0.0682,0.073,0.0779,0.0837,0.0901,0.0977,0.1005,0.1152,0.1258,0.13,0.1349,0.1394,0.1434,0.1479,0.1496,0.1596,0.1564,0.1569,0.1507,0.1481,0.1473,0.147,0.1517,0.1519,0.1519,0.152,0,0.0587,0.0611,0.0685,0.0719,0.0784,0.0819,0.0875,0.0933,0.1019,0.1174,0.117,0.1275,0.1363,0.1371,0.1403,0.1431,0.1412,0.1383,0.1397,0.1407,0.1314,0.1259,0.1231,0,0,0,0,0,0.0535,0.0559,0.06,0.0653,0.0712,0.0759,0.0841,0.0895,0.1028,0.1037,0.1116,0.1159,0.1224,0.1249,0.1253,0.1332,0.1408,0.133,0.1378,0.147,0.148,0.138,0,0,0,0,0,0,0.05,0.0543,0.0589,0.0608,0.0611,0.0694,0.0745,0.0825,0.0829,0.095,0.0975,0.1096,0.1149,0.1214,0.123,0.1248,0.1259,0.1402,0.1399,0.1464,0.1473,0.1481,0.1383,0,0,0,0,0]},{"header":{"parameterUnit":"m.s-1","parameterCategory":2,"la1":30.2991,"la2":30.254,"lo1":-89.0895,"lo2":-89.0444,"dy":0.0017,"dx":0.0017,"nx":28,"ny":28,"refTime":"2026-02-24T09:00:00:Z","depth":"4","parameterNumber":3,"parameterNumberName":"V-component_of_CURRENTS"},"data":[0,0,0,0,0,0,0,0,0,0,0,0,0,0,0,0,0,0,0,0,0,0,0,0,0,0,0,0,0,0,0,0,0,0,0,0,0,0,0,0,0,0,0,0,0,0,0,0,0,0,0,0,0,0,0,0,0,0,-0.011,-0.0111,0,-0.0146,-0.0147,-0.0147,-0.0174,-0.0174,-0.0174,-0.0174,-0.0241,-0.0243,-0.0244,0,0,0,0,0,0,0,0,0,0,0,0,0,-0.0091,-0.0091,-0.011,-0.0111,-0.0111,-0.0146,-0.0147,-0.0148,-0.0174,-0.0174,-0.0174,-0.0174,-0.0241,-0.0243,-0.0245,0,0,0,0,0,0,0,0,0,0,0,0,0,-0.0111,-0.0091,-0.011,-0.0128,-0.013,-0.0146,-0.0147,-0.0148,-0.0174,-0.0174,-0.0174,-0.0174,-0.024,-0.0242,-0.0245,-0.0256,0,0,-0.0252,-0.0253,0,0,0,0,0,0,0,0,-0.011,-0.0112,-0.0125,-0.0127,-0.0129,-0.0155,-0.0165,-0.0185,-0.0174,-0.0158,-0.0174,-0.0175,-0.0215,-0.0219,-0.0226,-0.0259,-0.0262,-0.0253,-0.0254,-0.0255,-0.0256,0,0,0,0,0,0,0,-0.0109,-0.0111,-0.0125,-0.0125,-0.0128,-0.0143,-0.0146,-0.0169,-0.0186,-0.0159,-0.0161,-0.0164,-0.0216,-0.0224,-0.0228,-0.0263,-0.0253,-0.0255,-0.0256,-0.0257,-0.0322,-0.0322,0,0,0,0,0,0,-0.0101,-0.0109,-0.0124,-0.0126,-0.0119,-0.0143,-0.0147,-0.0147,-0.0185,-0.019,-0.0164,-0.0165,-0.0219,-0.0225,-0.0231,-0.0254,-0.0255,-0.0257,-0.0259,-0.0322,-0.0322,-0.0322,0,0,0,0,0,0,-0.01,-0.0102,-0.0123,-0.0118,-0.0122,-0.0143,-0.0144,-0.0148,-0.0156,-0.0188,-0.0194,-0.0168,-0.022,-0.0227,-0.0253,-0.0257,-0.0259,-0.0261,-0.0321,-0.0322,-0.0322,-0.0296,0,0,0,0,0,0,-0.0099,-0.0101,-0.01,-0.0118,-0.0122,-0.0131,-0.0143,-0.0148,-0.0157,-0.0159,-0.0193,-0.02,-0.0221,-0.0249,-0.0256,-0.026,-0.0263,-0.0321,-0.0322,-0.0322,-0.0297,-0.0296,-0.0295,0,0,0,0,0,-0.0099,-0.0095,-0.01,-0.0102,-0.0119,-0.0131,-0.0134,-0.0151,-0.0157,-0.016,-0.0184,-0.0199,-0.0257,-0.0251,-0.0259,-0.0264,-0.0321,-0.0322,-0.0322,-0.0297,-0.0296,-0.0295,0,0,0,0,0,0,-0.0088,-0.0098,-0.0103,-0.0104,-0.0115,-0.0135,-0.0139,-0.0149,-0.017,-0.0173,-0.0202,-0.0211,-0.0235,-0.0253,-0.0246,-0.0285,-0.0291,-0.0293,-0.027,-0.0269,-0.0268,-0.0266,-0.0265,0,0,0,0,0,-0.0084,-0.0084,-0.0097,-0.0098,-0.0101,-0.0119,-0.0126,-0.0136,-0.0156,-0.0165,-0.0188,-0.0216,-0.0243,-0.0257,-0.0282,-0.0302,-0.0322,-0.0311,-0.031,-0.0309,-0.0313,-0.0349,-0.0352,-0.0324,-0.0324,-0.0324,0,0,-0.0081,-0.0085,-0.0086,-0.0095,-0.0105,-0.0111,-0.0124,-0.0132,-0.014,-0.0169,-0.0188,-0.0212,-0.0247,-0.0271,-0.0283,-0.0287,-0.0324,-0.031,-0.0308,-0.0313,-0.035,-0.0353,-0.0356,-0.0325,-0.0324,-0.0324,0,0,-0.0074,-0.0077,-0.0075,-0.0082,-0.0092,-0.0104,-0.0104,-0.0122,-0.0133,-0.0151,-0.0178,-0.0205,-0.0238,-0.0269,-0.0288,-0.0297,-0.0317,-0.03,-0.0295,-0.0331,-0.0333,-0.0336,-0.0348,-0.0352,-0.03,-0.03,-0.03,0,-0.0072,-0.007,-0.0077,-0.0077,-0.0084,-0.0098,-0.0102,-0.0114,-0.0139,-0.0153,-0.0153,-0.0214,-0.0239,-0.0283,-0.0283,-0.0295,-0.0309,-0.0295,-0.0329,-0.0332,-0.0335,-0.0347,-0.0352,-0.0299,-0.0299,-0.0299,-0.03,0,-0.0065,-0.0064,-0.0063,-0.0068,-0.0076,-0.008,-0.0096,-0.0107,-0.0119,-0.0136,-0.0172,-0.0207,-0.0243,-0.0256,-0.0271,-0.0309,-0.0308,-0.0322,-0.033,-0.0337,-0.0349,-0.0354,-0.0298,-0.0298,-0.0298,-0.0299,0,0,-0.0069,-0.006,-0.0061,-0.0062,-0.0072,-0.008,-0.0091,-0.0113,-0.0121,-0.0148,-0.0167,-0.0217,-0.0231,-0.0254,-0.028,-0.0313,-0.0338,-0.0321,-0.0323,-0.0329,-0.0399,-0.0381,-0.0385,-0.0357,-0.0358,-0.0359,-0.0392,0,-0.0066,-0.0059,-0.0059,-0.0062,-0.0064,-0.0077,-0.0082,-0.0103,-0.0121,-0.0137,-0.0184,-0.0202,-0.0231,-0.0236,-0.0279,-0.032,-0.0353,-0.0327,-0.0396,-0.0398,-0.0379,-0.0392,-0.0362,-0.0397,-0.0398,-0.0399,-0.0399,0,-0.0066,-0.0062,-0.0057,-0.0057,-0.0059,-0.0057,-0.0075,-0.008,-0.0108,-0.0119,-0.0156,-0.0178,-0.0226,-0.0241,-0.033,-0.0309,-0.0352,-0.0389,-0.0391,-0.0391,-0.0391,-0.0394,-0.0409,-0.0409,-0.0408,-0.0407,-0.0407,0,-0.0073,-0.0067,-0.0062,-0.0063,-0.006,-0.006,-0.0058,-0.0076,-0.007,-0.0099,-0.0095,-0.0164,-0.0184,-0.0254,-0.0326,-0.0322,-0.0422,-0.0426,-0.0457,-0.0455,-0.0472,-0.0469,-0.0498,-0.0498,-0.0498,-0.0498,-0.0498,0,-0.0076,-0.0077,-0.0058,-0.0057,-0.0049,-0.0046,-0.0036,-0.0046,-0.0039,-0.0024,-0.0075,-0.0093,-0.019,-0.0253,-0.032,-0.0402,-0.0419,-0.0459,-0.047,-0.0457,-0.0452,-0.0474,-0.0471,-0.0499,-0.0499,-0.0499,-0.0499,0,-0.009,-0.0074,-0.0072,-0.0058,-0.0048,-0.0042,-0.0004,0.0007,0.0014,0.0035,0.0038,-0.004,-0.012,-0.0215,-0.0334,-0.0388,-0.0467,-0.0498,-0.0465,-0.0472,-0.0473,-0.0469,-0.0518,-0.0518,-0.0518,-0.0518,-0.0518,0,-0.0102,-0.0094,-0.0073,-0.0075,-0.0066,-0.0043,-0.0016,0.0026,0.0044,0.0063,0.0067,0.0004,-0.0053,-0.0201,-0.0327,-0.0446,-0.0473,-0.0506,-0.0504,-0.0474,-0.0479,-0.0474,-0.047,-0.0517,-0.0517,-0.0517,-0.0517,0,-0.0128,-0.0111,-0.0098,-0.008,-0.0053,-0.0016,0.0026,0.0054,0.0115,0.0119,0.0121,0.0061,-0.0045,-0.0187,-0.0288,-0.0383,-0.0474,-0.0505,-0.0506,-0.0503,-0.0473,-0.0477,-0.0473,-0.0517,-0.0517,-0.0517,-0.0517,0,-0.0152,-0.0136,-0.0099,-0.0082,-0.0055,0.0005,0.0034,0.0083,0.0137,0.0177,0.0159,0.0075,0.0004,-0.0157,-0.0257,-0.0339,-0.0358,-0.0376,-0.0384,-0.0386,-0.0345,-0.0287,-0.0285,0,0,0,0,0,-0.0185,-0.0144,-0.0118,-0.0072,-0.0046,-0.0001,0.0055,0.0089,0.0153,0.0181,0.0195,0.0117,-0.0009,-0.0118,-0.0191,-0.0283,-0.04,-0.0375,-0.0431,-0.0513,-0.0514,-0.0488,0,0,0,0,0,0,-0.0198,-0.0167,-0.0104,-0.0049,-0.0032,0.0051,0.01,0.015,0.0156,0.018,0.0093,0.0097,-0.0067,0.0042,-0.0194,-0.0227,-0.0271,-0.0442,-0.0443,-0.0513,-0.0514,-0.0514,-0.0488,0,0,0,0,0]}]]